Location: Boursonne
(49.2024°N, 3.0468°E)
Time: 08:39:10
(UTC+00:00)

Cosmos 2322 Rocket - Pass Details

Date: 03 March 2021
Orbit: 832 x 852 km, 71.0° (Epoch: 13 April)

Event Time Altitude Azimuth Distance (km) Brightness Sun altitude
Rises 19:07:05 0° 216° (SW) 3,365 5.7 -15.9°
Reaches altitude 10° 19:09:32 10° 219° (SW) 2,436 5.0 -16.3°
Maximum altitude 19:15:05 65° 302° (WNW) 915 2.6 -17.2°
Drops below altitude 10° 19:20:41 10° 24° (NNE) 2,458 4.5 -18.1°
Sets 19:23:10 0° 28° (NNE) 3,399 5.2 -18.5°
